Weather History for Homer, AK

Change the Weather History Date:

Wednesday, September 11, 2013

  Actual Average Record
Temperature  
Mean Temperature 55 °F -  
Max Temperature 59 °F 55 °F 69 °F (1997)
Min Temperature 53 °F 41 °F 27 °F (1992)
Degree Days  
Heating Degree Days 10    
Growing Degree Days 5 (Base 50)    
Moisture  
Dew Point 49 °F    
Average Humidity 81    
Maximum Humidity 94    
Minimum Humidity 60    
Precipitation  
Precipitation 0.71 in - - ()
Sea Level Pressure  
Sea Level Pressure 29.70 in    
Wind  
Wind Speed 4 mph (WSW)    
Max Wind Speed 16 mph    
Max Gust Speed -    
Visibility 7 miles    
Events Rain    
Averages and records for this station are not official NWS values.
T = Trace of Precipitation, MM = Missing Value Source: NWS Daily Summary

Daily Weather History Graph

Daily Weather History Graph

Search for Another Location

Airport:

Trip Planner

Search our weather history database for the weather conditions in past years. The results will help you decide how hot, cold, wet, or windy it might be!

Date:

Astronomy

Sep. 11, 2013 Rise Set
Actual Time 7:26 AM AKDT 8:37 PM AKDT
Civil Twilight 6:43 AM AKDT 9:19 PM AKDT
Nautical Twilight 5:51 AM AKDT 10:11 PM AKDT
Astronomical Twilight 4:50 AM AKDT 11:11 PM AKDT
Moon 3:44 PM AKDT (9/11) 11:03 PM AKDT (9/11)
Length of Visible Light 14h 35m
Length of Day
13h 11m
Waxing Crescent, 40% of the Moon is Illuminated
Sep 11
Waxing Crescent
Sep 12
First Quarter
Sep 19
Full
Sep 26
Last Quarter
Oct 4
New

Hourly Weather History & Observations

Time (AKDT) Temp. Dew Point Humidity Pressure Visibility Wind Dir Wind Speed Gust Speed Precip Events Conditions
12:53 AM 55.0 °F 51.1 °F 86% 29.68 in 10.0 mi Calm Calm - N/A   Overcast
1:06 AM 53.6 °F 50.0 °F 88% 29.67 in 10.0 mi Calm Calm - N/A   Overcast
1:53 AM 55.0 °F 51.1 °F 86% 29.66 in 10.0 mi Calm Calm - 0.00 in Rain Light Rain
2:14 AM 55.4 °F 51.8 °F 88% 29.65 in 2.0 mi Calm Calm - 0.07 in Rain Heavy Rain
2:23 AM 53.6 °F 51.8 °F 94% 29.65 in 2.5 mi Calm Calm - 0.11 in Rain Heavy Rain
2:33 AM 53.6 °F 51.8 °F 94% 29.64 in 1.5 mi Calm Calm - 0.19 in Rain Heavy Rain
2:42 AM 53.6 °F 50.0 °F 88% 29.64 in 1.5 mi SW 3.5 mph - 0.26 in Rain Heavy Rain
2:48 AM 53.6 °F 50.0 °F 88% 29.64 in 2.0 mi Calm Calm - 0.30 in Rain Heavy Rain
2:53 AM 54.0 °F 50.0 °F 86% 29.65 in 2.5 mi Calm Calm - 0.33 in Rain Heavy Rain
3:00 AM 53.6 °F 50.0 °F 88% 29.64 in 3.0 mi Calm Calm - 0.03 in Rain Heavy Rain
3:19 AM 53.6 °F 50.0 °F 88% 29.64 in 6.0 mi Calm Calm - 0.07 in Rain Rain
3:53 AM 54.0 °F 50.0 °F 86% 29.63 in 4.0 mi SW 3.5 mph - 0.19 in Rain Heavy Rain
3:59 AM 53.6 °F 51.8 °F 94% 29.63 in 2.5 mi SSW 3.5 mph - 0.02 in Rain Heavy Rain
4:09 AM 53.6 °F 50.0 °F 88% 29.63 in 3.0 mi SW 5.8 mph - 0.05 in Rain Rain
4:12 AM 53.6 °F 50.0 °F 88% 29.63 in 3.0 mi SW 6.9 mph - 0.06 in Rain Rain
4:20 AM 53.6 °F 50.0 °F 88% 29.62 in 2.5 mi Calm Calm - 0.07 in Rain Rain
4:29 AM 53.6 °F 51.8 °F 94% 29.62 in 3.0 mi SW 3.5 mph - 0.10 in Rain Rain
4:51 AM 53.6 °F 50.0 °F 88% 29.62 in 7.0 mi WSW 3.5 mph - 0.11 in Rain Light Rain
4:53 AM 54.0 °F 50.0 °F 86% 29.62 in 7.0 mi West 3.5 mph - 0.11 in Rain Light Rain
5:45 AM 53.6 °F 50.0 °F 88% 29.62 in 9.0 mi Calm Calm - 0.03 in Rain Light Rain
5:53 AM 53.1 °F 48.9 °F 86% 29.62 in 9.0 mi SSW 3.5 mph - 0.03 in Rain Light Rain
6:13 AM 53.6 °F 50.0 °F 88% 29.63 in 10.0 mi Calm Calm - 0.01 in Rain Light Rain
6:33 AM 53.6 °F 50.0 °F 88% 29.63 in 9.0 mi Calm Calm - 0.02 in Rain Light Rain
6:51 AM 55.4 °F 50.0 °F 82% 29.64 in 10.0 mi WSW 9.2 mph - 0.02 in   Overcast
6:53 AM 54.0 °F 50.0 °F 86% 29.64 in 10.0 mi WSW 10.4 mph - 0.02 in Rain Light Rain
7:39 AM 53.6 °F 50.0 °F 88% 29.66 in 5.0 mi West 9.2 mph - 0.03 in Rain Light Rain
7:51 AM 53.6 °F 50.0 °F 88% 29.66 in 5.0 mi WSW 12.7 mph - 0.03 in Rain Light Rain
7:53 AM 53.1 °F 48.9 °F 86% 29.66 in 5.0 mi WSW 9.2 mph - 0.03 in Rain Light Rain
8:32 AM 53.6 °F 48.2 °F 82% 29.67 in 3.0 mi WSW 9.2 mph - 0.00 in Rain Light Rain
8:53 AM 53.1 °F 48.9 °F 86% 29.68 in 5.0 mi West 9.2 mph - 0.00 in Rain Light Rain
9:53 AM 53.1 °F 48.0 °F 83% 29.71 in 10.0 mi WSW 11.5 mph - 0.00 in   Mostly Cloudy
10:53 AM 54.0 °F 46.9 °F 77% 29.74 in 10.0 mi SW 15.0 mph - N/A   Mostly Cloudy
11:53 AM 55.9 °F 46.9 °F 72% 29.77 in 10.0 mi SW 15.0 mph - N/A   Partly Cloudy
12:53 PM 55.9 °F 45.0 °F 67% 29.79 in 10.0 mi SW 16.1 mph - N/A   Scattered Clouds
1:53 PM 57.0 °F 45.0 °F 64% 29.81 in 10.0 mi WSW 13.8 mph - N/A   Scattered Clouds
2:53 PM 57.9 °F 44.1 °F 60% 29.82 in 10.0 mi SW 12.7 mph - N/A   Scattered Clouds
3:53 PM 57.9 °F 45.0 °F 62% 29.83 in 10.0 mi WSW 11.5 mph - N/A   Partly Cloudy
4:53 PM 57.0 °F 46.9 °F 69% 29.84 in 10.0 mi West 12.7 mph - N/A   Partly Cloudy
5:53 PM 57.0 °F 45.0 °F 64% 29.84 in 10.0 mi West 11.5 mph - N/A   Partly Cloudy
6:53 PM 57.0 °F 46.9 °F 69% 29.85 in 10.0 mi West 6.9 mph - N/A   Clear
7:53 PM 55.0 °F 44.1 °F 67% 29.85 in 10.0 mi West 8.1 mph - N/A   Clear
8:53 PM 54.0 °F 43.0 °F 66% 29.87 in 10.0 mi WSW 6.9 mph - N/A   Clear
9:53 PM 54.0 °F 45.0 °F 72% 29.89 in 10.0 mi West 4.6 mph - N/A   Overcast
10:53 PM 53.1 °F 43.0 °F 69% 29.90 in 10.0 mi Calm Calm - N/A   Scattered Clouds
11:53 PM 54.0 °F 42.1 °F 64% 29.91 in 10.0 mi SSW 6.9 mph - N/A   Clear